Location: Camp Roosevelt
(41.7914°N, 81.1673°W)
Time: 18:23:44
(UTC+00:00)

Cosmos 1408 - Pass Details

Date: 29 October 2020
Orbit: 470 x 492 km, 82.6° (Epoch: 23 November)

Event Time Altitude Azimuth Distance (km) Brightness Sun altitude
Rises 22:57:09 0° 9° (N) 2,557 6.0 -7.1°
Reaches altitude 10° 22:59:49 10° 30° (NNE) 1,676 4.9 -7.6°
Maximum altitude 23:02:19 17° 73° (ENE) 1,291 4.1 -8.1°
Drops below altitude 10° 23:04:47 10° 116° (ESE) 1,675 4.8 -8.5°
Sets 23:07:27 0° 137° (SE) 2,554 5.9 -9.0°
